Regional Weather Roundup
Issued by NWS

Home | Current Version | Previous Version | Graphics & Text | Print | Product List | Glossary On
Versions: 1 2 3 4 5 6 7 8 9 10 11 12 13 14 15 16 17 18 19 20 21 22 23 24 25 26 27 28 29 30 31 32 33 34 35 36 37 38 39 40 41 42 43 44 45 46 47 48 49 50
000
ASUS44 KMEG 312100
RWRTN
TENNESSEE HOURLY STATE WEATHER ROUNDUP
NATIONAL WEATHER SERVICE MEMPHIS TN
400 PM CDT FRI JUL 31 2015

TNZ002-004-019-021-049-052-054-088>092-312200-
WEST TENNESSEE

CITY           SKY/WX    TMP DP  RH WIND       PRES   REMARKS
MEMPHIS INTL   MOSUNNY   93  63  36 N12G18    30.05F HX  94
NWS MEMPHIS      N/A     90 N/A N/A MISG        N/A
JACKSON        MOSUNNY   94  64  37 N10       30.04F HX  95
DYERSBURG        N/A    N/A N/A N/A MISG        N/A
PARIS          SUNNY     84  66  54 VRB6      30.06F
LEXINGTON      SUNNY     88  63  42 NE5       30.03F
$$

TNZ008-025-027-028-033-062-065-066-312200-
NORTH MIDDLE TENNESSEE

CITY           SKY/WX    TMP DP  RH WIND       PRES   REMARKS
NASHVILLE      MOSUNNY   90  60  36 N12       30.03F
CLARKSVILLE    SUNNY     88  65  46 N9        30.04F HX  90
CROSSVILLE     SUNNY     83  56  39 N8        30.07F
$$

TNZ061-075-076-078-094-096-097-312200-
SOUTH MIDDLE TENNESSEE

CITY           SKY/WX    TMP DP  RH WIND       PRES   REMARKS
FAYETTEVILLE   SUNNY     88  54  31 N13       30.01F
TULLAHOMA      SUNNY     86  52  30 N13       30.04F
WINCHESTER     SUNNY     88  57  35 N14       30.02F
MCMINNVILLE    SUNNY     86  63  45 NE7       30.04F
COLUMBIA       SUNNY     90  63  40 NW9       30.02F HX  90
SHELBYVILLE    SUNNY     90  63  40 NE13      30.03F HX  90
$$

TNZ017-018-042-046-047-312200-
NORTHEAST TENNESSEE

CITY           SKY/WX    TMP DP  RH WIND       PRES   REMARKS
TRI CITIES     MOSUNNY   86  53  32 CALM      30.02F
ELIZABETHTON   CLEAR     82  55  39 N7        30.03F
$$

TNZ012-013-036-069-073-074-312200-
CENTRAL EAST TENNESSEE

CITY           SKY/WX    TMP DP  RH WIND       PRES   REMARKS
KNOXVILLE      MOSUNNY   87  58  37 N12G17    30.00F
OAK RIDGE      SUNNY     89  58  34 VRB7      30.02F
GATLINBURG     CLEAR     86  57  37 E5        30.00F
$$

TNZ083-085-099-312200-
SOUTHEAST TENNESSEE

CITY           SKY/WX    TMP DP  RH WIND       PRES   REMARKS
CHATTANOOGA    MOSUNNY   88  60  38 N14       29.98F
$$

SKY/WX REPORTED AS FAIR MEANS FEW OR NO CLOUDS BELOW
12 THOUSAND FEET.



USA.gov is the U.S. government's official web portal to all federal, state and local government web resources and services.